Weather History for PANN - January, 2013

Change the Weather History Date:

Saturday, January 5, 2013

  Actual Average Record
Temperature  
Mean Temperature 32 °F -  
Max Temperature 48 °F 1 °F 54 °F (2002)
Min Temperature 15 °F -14 °F -43 °F (2009)
Degree Days  
Heating Degree Days 34    
Moisture  
Dew Point 10 °F    
Average Humidity 62    
Maximum Humidity 84    
Minimum Humidity 44    
Precipitation  
Precipitation 0.08 in - - ()
Sea Level Pressure  
Sea Level Pressure 29.60 in    
Wind  
Wind Speed 8 mph (ENE)    
Max Wind Speed 16 mph    
Max Gust Speed 29 mph    
Visibility 10 miles    
Events Rain    
Averages and records for this station are not official NWS values.
T = Trace of Precipitation, MM = Missing Value Source: NWS Daily Summary

Daily Weather History Graph

Daily Weather History Graph

Search for Another Location

Airport or City:

Trip Planner

Search our weather history database for the weather conditions in past years. The results will help you decide how hot, cold, wet, or windy it might be!

Date:

Astronomy

Jan. 05, 2013 Rise Set
Actual Time 10:48 AM AKST 3:16 PM AKST
Civil Twilight 9:31 AM AKST 4:32 PM AKST
Nautical Twilight 8:23 AM AKST 5:41 PM AKST
Astronomical Twilight 7:23 AM AKST 6:41 PM AKST
Moon 2:34 AM AKST (1/5) 11:34 AM AKST (1/5)
Length of Visible Light 7h 00m
Length of Day
4h 28m
Last Quarter, 42% of the Moon is Illuminated
Jan 5
Last Quarter
Jan 11
New
Jan 18
First Quarter
Jan 26
Full
Feb 3
Last Quarter

Hourly Weather History & Observations

Time (AKST) Temp. Windchill Dew Point Humidity Pressure Visibility Wind Dir Wind Speed Gust Speed Precip Events Conditions
12:53 AM -6.0 °F - -11.0 °F 79% 29.83 in 10.0 mi Calm Calm - N/A   Clear
1:53 AM -5.1 °F - -9.9 °F 80% 29.81 in 10.0 mi Calm Calm - N/A   Overcast
3:53 AM -2.9 °F - -8.0 °F 79% 29.77 in 10.0 mi Calm Calm - N/A   Partly Cloudy
4:53 AM 18.0 °F 6.1 °F 7.0 °F 62% 29.74 in 10.0 mi ENE 10.4 mph - N/A   Clear
5:53 AM 19.0 °F 6.1 °F 7.0 °F 59% 29.72 in 10.0 mi ENE 12.7 mph - N/A   Clear
6:53 AM 19.0 °F 6.1 °F 7.0 °F 59% 29.70 in 10.0 mi East 12.7 mph - N/A   Clear
7:53 AM 19.0 °F 6.8 °F 7.0 °F 59% 29.67 in 10.0 mi ENE 11.5 mph - N/A   Clear
8:53 AM 19.9 °F 7.9 °F 8.1 °F 60% 29.65 in 10.0 mi ENE 11.5 mph 20.7 mph N/A   Clear
9:53 AM 21.0 °F 7.6 °F 8.1 °F 57% 29.63 in 10.0 mi East 15.0 mph - N/A   Clear
10:53 AM 21.0 °F 7.6 °F 8.1 °F 57% 29.60 in 10.0 mi ENE 15.0 mph - N/A   Clear
11:53 AM 21.9 °F 8.2 °F 8.1 °F 55% 29.58 in 10.0 mi ENE 16.1 mph 21.9 mph N/A   Clear
12:53 PM 21.9 °F 8.7 °F 8.1 °F 55% 29.56 in 10.0 mi ENE 15.0 mph 28.8 mph N/A   Clear
1:53 PM 21.9 °F 9.8 °F 8.1 °F 55% 29.54 in 10.0 mi ENE 12.7 mph 23.0 mph N/A   Clear
2:53 PM 21.0 °F 11.4 °F 8.1 °F 57% 29.52 in 10.0 mi ENE 8.1 mph - N/A   Clear
3:53 PM 21.9 °F 11.7 °F 8.1 °F 55% 29.49 in 10.0 mi ENE 9.2 mph 17.3 mph N/A   Clear
4:53 PM 21.0 °F 11.4 °F 8.1 °F 57% 29.47 in 10.0 mi ENE 8.1 mph - N/A   Mostly Cloudy
5:53 PM 21.0 °F 8.1 °F 8.1 °F 57% 29.45 in 10.0 mi ENE 13.8 mph 20.7 mph N/A   Partly Cloudy
6:53 PM 15.1 °F 9.4 °F 5.0 °F 64% 29.44 in 10.0 mi North 3.5 mph - N/A   Clear
7:53 PM 21.0 °F 9.9 °F 8.1 °F 57% 29.43 in 10.0 mi ENE 10.4 mph - N/A   Clear
8:53 PM 21.9 °F 9.8 °F 9.0 °F 58% 29.41 in 10.0 mi ENE 12.7 mph 19.6 mph N/A   Clear
9:53 PM 21.9 °F 12.5 °F 9.0 °F 58% 29.40 in 10.0 mi ENE 8.1 mph - N/A   Clear
10:53 PM 23.0 °F 11.1 °F 9.0 °F 55% 29.40 in 10.0 mi ENE 12.7 mph 20.7 mph N/A   Clear
11:53 PM 23.0 °F 9.6 °F 9.0 °F 55% 29.38 in 10.0 mi ENE 16.1 mph 27.6 mph N/A   Clear